Wind_Speed
5 5 4 4 4 4 4 4 4 4 4 4 4 4 4 4 5 7 7 7 6 6 5 5 5 6 6 6 7 7 7 7 7 7 7 7 7 7 7 6 6 6 6
5 5 5 5 5 5 5 5 5 5 4 4 4 4 4 5 5 6 8 7 7 7 7 6 6 6 6 6 6 7 8 8 8 8 7 7 7 8 8 8 8 8 7
5 5 5 5 6 5 5 5 5 5 5 4 4 4 5 5 6 6 7 8 7 7 7 7 7 7 7 7 7 7 8 8 8 8 8 8 8 8 9 9 9 8 8
5 6 5 6 5 5 6 6 5 5 5 5 5 5 5 6 6 6 6 7 7 8 8 8 7 8 8 8 8 8 8 9 8 9 9 9 9 9 9 10 10 9 9
5 6 6 6 5 5 5 5 6 6 6 6 6 6 6 6 6 5 5 6 7 7 8 8 8 8 8 8 8 9 9 10 10 10 10 10 11 10 11 11 11 10 10
5 5 5 5 5 5 5 6 6 6 6 7 7 6 7 7 6 6 6 6 6 7 7 8 9 9 9 9 9 9 10 11 12 12 11 11 11 11 11 11 11 11 12
5 5 5 5 5 6 6 6 6 6 6 6 6 6 6 6 5 6 6 6 6 6 7 8 8 9 9 10 10 10 10 11 12 12 12 12 12 12 11 11 11 12 12
4 4 4 5 5 6 6 7 6 6 6 6 6 6 6 5 6 6 6 6 6 7 7 8 8 9 9 10 10 10 11 11 12 11 12 11 10 11 11 12 12 13 13
5 4 4 4 5 5 6 6 6 6 6 6 6 5 5 5 5 6 5 5 6 7 7 8 9 9 10 10 10 10 10 11 11 11 10 10 10 10 11 12 13 13 13
5 4 5 5 5 5 5 5 6 6 6 5 5 5 5 5 5 5 5 5 6 7 7 7 8 9 9 9 10 10 10 9 10 11 10 9 10 11 12 12 13 13 13
5 5 5 5 5 5 5 4 4 5 5 5 6 5 5 5 5 5 5 6 6 6 6 7 7 8 9 9 9 9 9 9 9 9 10 9 10 11 11 12 12 13 14
5 5 5 5 5 5 5 5 5 5 5 5 5 5 5 5 5 6 6 6 6 6 7 7 7 7 7 8 8 8 8 9 9 9 9 10 10 11 11 11 12 13 13
6 6 6 5 5 5 5 5 5 6 6 5 4 4 5 5 6 6 7 7 7 6 6 6 6 6 7 7 8 9 9 9 9 9 9 10 10 11 12 12 12 12 13
7 7 7 6 6 5 5 6 6 6 5 4 5 5 5 6 6 6 6 6 6 6 6 7 7 7 7 8 9 9 9 9 9 9 9 10 10 12 12 13 13 13 13
7 7 7 7 6 6 6 6 6 5 5 6 6 6 6 6 6 7 7 6 7 7 8 8 8 9 8 9 9 10 9 10 11 11 11 11 12 12 13 13 14 14 15
6 6 7 7 7 6 6 5 5 5 6 6 7 7 7 7 7 8 8 8 8 9 9 9 10 10 10 10 10 10 10 11 12 12 13 13 13 14 14 14 15 15 15
6 6 7 7 7 6 5 5 5 6 6 6 7 7 7 8 9 9 9 10 10 11 11 11 12 12 12 12 12 12 13 13 13 14 14 14 15 15 15 15 15 15 15
7 7 7 7 7 6 6 7 7 7 7 7 8 8 8 9 10 10 10 10 11 11 12 12 13 14 14 14 14 14 15 14 14 15 15 15 15 15 15 15 16 15 15
9 9 8 7 7 7 7 8 8 8 9 9 9 9 10 10 10 11 11 11 12 12 12 13 14 14 15 15 15 16 16 16 15 15 15 15 15 15 15 15 15 15 15
10 9 9 8 8 8 8 8 9 10 10 10 11 11 11 11 11 12 11 12 13 13 13 14 15 15 15 15 16 16 16 16 16 16 16 15 15 15 15 15 15 15 15
10 10 10 10 9 9 9 10 10 11 11 12 12 12 13 13 13 13 13 13 13 14 15 15 15 16 16 16 16 16 16 16 16 16 16 16 16 16 16 16 15 16 16
11 10 11 11 11 10 11 11 11 12 12 13 13 13 13 14 14 14 14 14 14 15 15 15 15 15 15 16 16 16 16 16 16 16 16 16 16 16 17 17 16 16 16
11 11 11 12 12 12 12 12 12 12 13 13 14 14 14 14 15 15 15 15 15 15 15 15 15 15 15 15 15 15 16 16 16 16 17 17 17 17 17 17 17 17 17
12 12 12 12 13 13 13 13 13 13 14 14 14 14 15 15 15 15 15 15 15 15 15 15 15 15 15 15 15 16 16 16 17 17 17 17 18 18 18 18 17 18 17
13 13 13 13 14 14 13 13 14 14 15 15 15 15 15 15 15 15 15 15 16 16 16 16 16 15 15 15 15 16 16 16 17 17 17 17 18 18 18 18 18 19 18
14 14 15 14 14 14 15 15 15 15 15 16 16 17 16 16 16 16 16 16 16 16 16 16 16 16 16 16 16 16 16 17 17 17 18 18 18 19 19 20 20 20 19
Wind_Direction
247 251 250 251 248 249 253 259 261 263 268 266 266 271 263 263 234 220 219 221 220 222 220 220 220 221 212 208 208 205 208 201 199 202 204 205 203 203 204 208 212 216 219
250 252 252 250 254 253 252 258 259 263 270 271 261 264 261 253 240 229 225 226 228 229 226 227 232 233 225 220 217 214 213 213 218 217 216 214 214 213 215 220 222 224 224
256 256 254 252 256 258 257 259 263 264 269 275 273 262 257 258 252 240 234 235 235 235 232 235 236 236 232 229 227 223 221 224 223 226 227 224 221 218 219 225 230 231 233
263 261 259 256 259 259 257 259 264 267 274 279 281 272 268 268 262 248 237 239 239 238 238 237 239 238 239 239 238 234 235 236 234 236 237 236 236 233 224 229 234 235 238
268 264 262 257 261 259 258 263 265 269 273 278 279 274 270 265 258 256 246 247 242 243 243 241 239 238 238 242 241 242 242 244 242 239 240 242 243 245 240 238 240 240 243
270 267 261 256 259 259 260 265 269 271 276 281 278 272 268 267 259 254 253 251 248 245 244 244 239 235 238 242 241 245 244 245 246 245 245 244 243 246 245 242 242 241 242
268 267 264 261 261 263 263 267 272 272 275 279 278 272 268 267 262 256 252 253 253 244 238 239 239 240 243 247 249 248 248 248 248 250 247 248 246 247 244 239 241 240 244
270 270 269 268 268 268 267 267 267 272 274 275 276 273 267 265 258 257 260 261 264 256 239 242 243 244 250 252 254 249 248 252 250 248 247 244 248 249 245 244 243 247 247
271 271 273 276 274 272 271 267 269 272 274 276 274 270 267 265 261 257 262 267 267 262 253 252 249 250 256 258 261 254 254 253 250 248 247 244 247 251 250 252 252 251 248
271 273 277 277 275 273 276 277 274 275 273 276 273 267 267 268 264 263 266 271 271 268 266 258 250 253 261 261 266 264 260 253 247 245 244 249 254 254 253 255 255 252 250
274 274 279 279 274 274 279 285 285 284 280 277 276 270 268 270 271 270 273 274 272 272 273 269 261 260 260 257 261 264 257 252 249 248 246 252 259 259 260 258 260 256 254
275 276 279 279 276 275 279 281 282 286 287 281 276 274 273 275 273 272 273 275 275 274 271 273 273 265 264 259 260 263 261 259 256 255 255 259 263 263 264 265 262 261 260
274 276 275 271 270 274 278 280 281 283 284 285 282 282 283 282 279 277 276 278 281 281 281 280 282 278 268 264 264 270 267 263 261 261 262 262 265 267 267 271 268 267 266
272 273 271 268 269 272 275 282 283 282 283 287 291 289 287 286 283 283 284 286 290 293 289 283 280 279 274 275 280 281 274 270 270 267 265 264 268 269 270 274 274 273 270
272 270 270 270 272 276 279 279 278 277 280 282 283 285 286 288 286 282 286 286 285 286 286 285 284 282 282 283 282 282 278 276 277 274 271 272 276 277 279 277 275 273 272
276 272 268 272 275 278 277 277 279 283 284 282 283 282 284 286 285 283 281 280 283 283 282 283 284 283 283 284 283 282 282 280 280 280 277 278 281 283 282 281 276 273 273
277 279 277 275 274 274 273 278 282 284 285 287 285 284 284 285 286 285 283 282 282 283 282 280 281 282 282 281 280 279 279 278 279 280 279 280 281 282 284 283 281 279 280
275 278 279 276 276 275 276 279 280 283 287 290 289 287 285 285 287 286 285 285 284 284 282 281 281 281 280 279 277 276 277 278 279 279 279 278 279 280 281 283 283 283 284
273 276 277 276 277 277 277 278 281 283 286 289 290 289 288 288 288 289 289 290 289 287 286 286 285 284 283 281 278 276 275 275 277 278 278 279 279 279 280 282 283 283 283
270 271 272 273 275 278 281 284 285 286 286 287 288 288 289 290 290 289 290 290 290 289 289 289 288 287 285 283 281 278 276 274 274 276 278 279 279 279 280 280 281 281 282
267 267 269 271 275 279 283 286 287 288 288 288 288 288 287 288 289 289 290 290 290 291 290 289 288 287 287 285 283 280 278 277 274 275 278 279 280 281 280 279 279 280 280
264 266 268 269 274 278 281 284 288 290 290 290 288 288 288 289 288 288 288 290 291 291 291 289 288 287 287 286 284 282 279 278 276 275 275 276 278 278 278 278 277 277 278
263 264 265 269 274 278 279 283 287 291 293 293 293 291 289 287 286 287 287 289 290 290 289 289 288 288 288 288 287 285 282 279 277 275 275 275 276 276 276 278 277 276 277
265 264 264 268 273 277 279 283 287 292 294 295 295 293 290 289 288 288 288 288 289 290 289 287 286 286 287 288 288 287 284 281 280 276 275 275 276 276 274 276 275 276 277
263 263 264 267 272 278 281 284 288 292 295 295 296 296 295 292 288 286 287 288 289 288 288 287 286 286 286 286 287 287 286 283 280 278 276 277 277 277 276 274 274 276 277
261 263 265 268 273 278 282 287 289 291 294 296 296 296 295 291 287 286 287 287 290 288 287 286 286 286 286 286 287 286 285 284 283 281 279 279 278 276 276 274 273 273 274
Height
5861 5861 5861 5862 5862 5862 5863 5863 5863 5863 5863 5863 5863 5863 5863 5862 5862 5863 5865 5866 5867 5868 5869 5869 5869 5870 5871 5871 5872 5873 5873 5874 5874 5875 5876 5877 5878 5879 5880 5881 5882 5883 5883
5860 5860 5861 5861 5861 5862 5862 5862 5862 5863 5863 5863 5863 5863 5863 5863 5863 5863 5864 5865 5866 5867 5868 5868 5869 5869 5870 5871 5871 5872 5873 5873 5874 5875 5876 5877 5877 5878 5879 5880 5881 5882 5883
5860 5860 5860 5860 5861 5861 5861 5862 5862 5862 5862 5862 5862 5862 5863 5863 5863 5864 5864 5865 5865 5866 5867 5868 5868 5869 5870 5870 5871 5871 5872 5873 5873 5874 5874 5875 5876 5876 5877 5878 5879 5881 5881
5859 5859 5859 5860 5860 5860 5861 5861 5861 5862 5862 5862 5862 5862 5862 5862 5863 5863 5863 5864 5865 5865 5866 5867 5867 5868 5869 5869 5870 5870 5871 5871 5872 5873 5873 5874 5875 5875 5876 5877 5878 5879 5880
5858 5858 5858 5859 5859 5860 5860 5860 5861 5861 5861 5861 5861 5861 5861 5862 5862 5862 5863 5863 5864 5864 5865 5865 5866 5867 5868 5868 5869 5869 5870 5870 5871 5871 5872 5873 5874 5874 5875 5876 5877 5878 5879
5857 5858 5858 5858 5858 5859 5859 5860 5860 5860 5860 5860 5860 5860 5861 5861 5861 5862 5862 5863 5863 5863 5864 5864 5865 5865 5866 5867 5867 5868 5868 5868 5869 5870 5871 5872 5872 5873 5874 5875 5876 5876 5877
5857 5857 5857 5857 5858 5858 5858 5859 5859 5859 5859 5859 5859 5860 5860 5860 5860 5861 5861 5862 5862 5862 5863 5863 5863 5864 5864 5865 5865 5865 5866 5867 5867 5868 5869 5870 5871 5871 5872 5873 5874 5875 5876
5856 5856 5856 5857 5857 5857 5857 5857 5858 5858 5858 5858 5858 5859 5859 5859 5860 5860 5860 5861 5861 5861 5861 5862 5862 5862 5863 5863 5863 5863 5864 5864 5865 5866 5867 5868 5869 5869 5870 5871 5872 5873 5874
5855 5856 5856 5856 5856 5856 5856 5857 5857 5857 5857 5857 5858 5858 5858 5858 5859 5859 5860 5860 5860 5860 5860 5860 5860 5861 5861 5861 5861 5861 5861 5862 5863 5864 5865 5866 5867 5867 5868 5869 5870 5871 5872
5855 5855 5855 5855 5855 5856 5856 5856 5856 5856 5856 5857 5857 5857 5857 5858 5858 5858 5859 5859 5859 5859 5859 5859 5858 5859 5859 5860 5860 5859 5859 5859 5860 5862 5864 5865 5865 5866 5866 5867 5868 5868 5869
5854 5854 5854 5855 5855 5855 5855 5855 5855 5855 5856 5856 5856 5856 5857 5857 5857 5857 5858 5858 5858 5858 5858 5858 5857 5858 5858 5859 5859 5858 5858 5858 5859 5860 5862 5863 5864 5864 5864 5865 5865 5866 5867
5853 5853 5854 5854 5854 5854 5854 5854 5855 5855 5855 5855 5855 5855 5856 5856 5856 5856 5856 5857 5857 5856 5856 5857 5857 5857 5857 5857 5857 5857 5858 5858 5859 5859 5860 5861 5862 5862 5863 5863 5863 5864 5864
5852 5852 5852 5853 5853 5853 5854 5854 5854 5854 5854 5854 5854 5855 5855 5855 5855 5855 5855 5855 5855 5856 5856 5855 5855 5856 5856 5856 5856 5856 5857 5857 5858 5858 5858 5859 5860 5860 5860 5861 5861 5861 5862
5851 5851 5851 5852 5852 5852 5853 5853 5853 5853 5853 5853 5854 5854 5854 5854 5854 5854 5854 5854 5854 5854 5854 5854 5854 5855 5855 5855 5855 5855 5855 5856 5856 5856 5857 5857 5858 5858 5858 5858 5859 5859 5860
5850 5850 5851 5851 5851 5851 5852 5852 5852 5852 5852 5853 5853 5853 5853 5853 5853 5853 5853 5853 5853 5853 5853 5853 5853 5853 5853 5853 5853 5853 5853 5854 5854 5854 5854 5855 5855 5855 5856 5856 5856 5857 5857
5849 5849 5849 5850 5850 5850 5851 5851 5851 5851 5851 5851 5852 5852 5852 5852 5852 5852 5852 5852 5851 5851 5851 5851 5851 5851 5851 5851 5851 5851 5851 5851 5852 5852 5852 5852 5853 5853 5853 5853 5853 5853 5854
5848 5848 5848 5848 5848 5849 5849 5850 5850 5850 5850 5850 5850 5850 5850 5850 5850 5850 5850 5850 5849 5849 5849 5849 5849 5849 5848 5848 5849 5849 5849 5849 5849 5849 5849 5850 5850 5850 5850 5850 5850 5850 5850
5846 5847 5847 5847 5847 5848 5848 5848 5848 5849 5849 5848 5848 5848 5848 5848 5848 5848 5847 5847 5847 5846 5846 5846 5846 5846 5846 5845 5845 5845 5845 5846 5846 5846 5846 5846 5847 5847 5847 5847 5847 5846 5846
5845 5845 5846 5846 5846 5846 5847 5847 5847 5847 5847 5847 5847 5846 5846 5846 5845 5845 5845 5844 5844 5844 5843 5843 5842 5842 5842 5842 5842 5842 5842 5842 5842 5842 5843 5843 5843 5843 5843 5843 5843 5843 5843
5843 5843 5844 5844 5845 5845 5845 5845 5845 5845 5845 5845 5844 5844 5844 5843 5843 5842 5842 5842 5841 5841 5840 5840 5839 5838 5838 5838 5838 5838 5838 5838 5838 5838 5839 5839 5839 5840 5840 5840 5840 5840 5840
5840 5841 5842 5842 5843 5843 5843 5843 5843 5843 5842 5842 5842 5841 5841 5840 5840 5839 5839 5839 5838 5838 5837 5836 5835 5835 5834 5834 5834 5834 5834 5834 5834 5834 5835 5835 5835 5836 5836 5836 5836 5836 5836
5838 5839 5839 5840 5841 5841 5841 5841 5840 5840 5840 5839 5839 5838 5838 5837 5837 5836 5836 5835 5835 5834 5833 5832 5832 5831 5831 5830 5830 5830 5830 5831 5830 5830 5831 5831 5831 5832 5832 5832 5832 5832 5832
5836 5837 5837 5838 5838 5838 5838 5838 5838 5837 5837 5837 5836 5835 5835 5834 5833 5833 5832 5832 5831 5830 5829 5829 5828 5828 5827 5827 5826 5826 5826 5826 5826 5826 5826 5827 5827 5827 5827 5828 5828 5828 5828
5833 5834 5835 5835 5835 5835 5835 5835 5835 5835 5834 5833 5833 5832 5831 5830 5830 5829 5828 5828 5827 5826 5826 5825 5824 5824 5823 5823 5822 5822 5822 5822 5822 5822 5822 5822 5822 5823 5823 5823 5823 5824 5824
5831 5831 5832 5832 5832 5832 5832 5832 5832 5831 5831 5830 5829 5828 5828 5827 5826 5825 5824 5824 5823 5822 5822 5821 5820 5820 5819 5819 5818 5818 5817 5817 5817 5817 5817 5817 5818 5818 5818 5818 5818 5819 5819
5827 5828 5828 5829 5829 5829 5829 5829 5828 5828 5827 5826 5825 5824 5823 5823 5822 5821 5820 5820 5819 5818 5818 5817 5816 5816 5815 5815 5814 5814 5813 5813 5813 5813 5813 5813 5813 5813 5813 5813 5813 5813 5814